Wind_Speed
24 24 27 27 26 24 27 24 23 24 21 19 17 15 14 10 10 12 13 12 15 17 16 16 16 25 23 20 19 21 24 26 27 27 26 25 27 27 26 26 26 25 25 26 28 28 26 25 25
26 27 29 30 27 26 28 26 26 25 23 22 21 20 16 14 15 15 17 20 20 21 22 21 15 23 22 19 18 24 29 29 26 26 27 26 27 29 28 26 25 24 24 26 29 29 29 27 26
28 29 31 31 29 27 31 29 28 27 26 24 22 19 17 14 14 17 20 25 21 27 27 26 19 25 21 20 21 28 31 30 29 27 27 27 26 27 27 25 24 24 24 26 27 28 29 28 27
31 32 32 30 27 29 31 31 30 29 27 27 24 23 21 18 18 20 24 27 27 22 21 19 20 25 20 21 21 30 32 31 31 30 28 29 29 27 25 25 23 24 23 24 27 28 29 29 28
34 36 34 29 28 29 30 33 32 32 30 31 29 25 24 23 23 24 30 32 28 28 26 20 22 23 22 17 21 29 34 32 34 34 30 29 32 32 30 28 27 26 27 25 26 28 30 29 28
37 37 38 30 30 31 37 37 36 35 32 33 32 29 28 28 28 30 33 36 33 27 32 27 25 21 18 16 22 32 36 35 35 39 34 30 32 33 32 31 29 29 29 29 28 28 28 28 26
41 42 38 37 36 39 39 42 39 39 38 37 34 32 31 32 32 35 36 37 33 31 32 30 28 23 20 21 27 32 34 33 37 39 39 32 32 33 32 31 31 29 30 30 31 30 30 29 26
43 46 43 43 40 39 43 44 42 42 40 40 37 34 37 37 37 38 36 35 37 34 29 29 29 27 29 30 30 30 31 31 35 38 36 33 32 34 32 31 32 31 31 31 31 32 31 31 27
45 51 49 46 44 41 44 45 45 48 43 44 41 39 40 42 41 37 36 32 33 33 33 30 30 30 34 34 37 34 35 37 37 38 31 33 32 34 34 31 33 33 33 33 32 33 32 31 27
51 55 51 43 43 40 45 51 52 47 43 43 43 45 45 44 41 38 32 29 33 35 34 34 37 35 34 37 38 38 39 41 42 40 31 32 32 33 32 34 35 36 33 34 34 34 33 30 29
58 58 47 46 46 46 47 48 53 53 53 50 46 45 48 48 41 38 38 42 37 39 37 37 37 35 36 38 40 40 40 42 45 38 33 31 31 29 33 35 36 37 34 33 35 33 32 29 31
63 61 54 47 52 51 52 52 55 57 55 52 50 48 48 46 41 40 43 43 40 36 35 35 33 36 37 41 44 45 40 39 40 38 32 31 31 32 33 35 35 35 34 33 38 35 34 33 32
70 62 61 56 53 52 55 58 57 57 55 53 50 50 47 44 41 38 41 46 43 39 38 37 38 40 41 44 46 46 44 42 36 35 33 33 32 28 31 35 35 36 34 35 37 37 36 33 31
60 73 68 62 61 57 61 61 61 56 55 55 54 51 50 42 41 40 44 47 42 41 40 41 44 45 48 47 48 46 45 42 36 34 34 36 32 28 33 37 33 36 38 37 38 39 36 30 34
57 64 69 77 66 65 62 67 64 58 57 61 58 54 48 42 44 47 47 50 43 41 41 43 47 47 48 46 48 48 44 42 39 41 34 34 35 33 35 37 31 34 39 42 39 39 30 32 35
59 61 65 63 72 73 67 69 60 59 63 60 58 50 50 51 52 50 45 49 44 42 42 45 48 50 48 46 50 51 45 41 43 42 34 32 33 34 37 36 32 35 37 38 39 31 32 36 35
64 62 62 61 64 71 79 70 66 64 63 62 62 61 58 57 55 50 48 46 47 46 46 48 48 50 48 50 49 47 44 44 45 41 37 35 34 35 35 38 35 36 33 38 43 34 36 35 34
62 64 65 65 63 69 71 66 72 70 69 67 65 64 62 55 50 49 50 46 48 50 49 50 49 51 51 50 48 42 43 44 44 43 37 34 36 33 36 37 34 36 36 37 40 40 35 32 34
69 68 67 68 66 67 66 65 61 69 71 64 64 64 58 54 50 50 44 46 48 49 51 50 50 55 50 46 43 41 44 45 44 39 35 36 35 34 34 33 32 33 38 36 36 33 32 32 31
73 73 71 69 67 67 66 62 62 62 59 61 62 59 56 49 46 46 44 45 47 46 48 49 50 49 47 42 41 43 44 45 43 38 33 32 32 33 29 29 32 36 36 36 35 33 32 29 27
74 76 74 72 70 67 67 64 59 56 57 55 53 52 51 45 40 41 42 45 44 43 43 46 49 48 45 41 42 41 42 38 36 32 28 29 28 25 28 29 32 33 36 33 32 31 28 25 26
73 75 76 75 73 69 67 66 62 54 51 51 44 41 40 39 40 40 43 43 42 43 45 48 47 44 39 40 39 39 37 31 27 25 24 22 24 27 28 29 32 33 32 30 30 27 24 24 26
67 72 75 75 75 73 65 69 51 50 44 39 35 32 33 36 38 40 40 41 43 44 41 37 35 35 36 37 37 34 27 25 24 23 22 23 27 27 29 30 29 30 27 28 25 23 23 22 26
47 62 69 72 74 76 61 66 49 41 37 35 34 34 33 34 37 38 40 41 38 34 31 31 31 31 35 34 34 25 23 24 25 23 23 26 30 29 27 27 28 26 26 24 21 21 21 22 24
35 43 59 67 73 68 65 66 41 35 36 37 38 37 36 36 38 37 33 29 27 25 28 29 32 33 32 32 24 22 23 25 25 23 24 28 28 27 25 24 24 25 23 19 19 20 19 20 19
25 34 37 59 66 62 66 59 39 37 22 33 40 39 35 42 35 31 24 21 22 24 25 27 29 29 30 23 20 21 23 23 22 22 24 24 24 22 22 24 23 22 18 17 18 19 20 16 18
21 31 34 36 55 66 63 47 45 41 29 14 18 33 42 36 27 20 21 23 24 23 23 24 26 27 22 18 19 21 22 21 21 22 21 21 22 23 25 22 19 17 16 16 18 18 19 14 18
24 22 32 38 45 58 57 48 45 47 40 40 35 23 18 25 23 21 24 23 20 20 20 22 21 18 17 19 21 21 20 19 19 18 19 20 24 24 19 17 17 15 15 15 14 16 14 17 8
22 24 29 35 42 49 55 50 50 49 35 42 32 33 22 24 24 26 21 20 19 17 18 17 17 17 17 19 18 17 17 18 18 17 19 22 19 16 15 15 15 13 13 12 13 15 16 19 13
11 25 21 35 41 47 53 51 52 49 38 32 27 28 24 25 25 21 18 18 16 17 17 18 17 14 16 16 14 15 15 17 18 19 20 18 17 15 15 14 12 11 11 11 12 14 15 19 15
Wind_Direction
223 223 224 219 220 222 224 226 226 230 231 233 234 245 259 270 271 291 308 326 309 315 316 319 325 332 330 338 343 344 340 332 327 327 330 332 328 325 318 317 316 314 312 314 314 313 314 313 311
223 219 221 219 219 220 225 228 228 233 236 241 250 266 264 275 290 308 316 318 303 305 302 309 302 319 315 316 334 341 335 328 324 325 327 326 324 323 319 313 313 314 312 314 315 317 320 319 316
220 221 219 218 218 219 224 227 231 239 244 244 251 260 274 285 287 299 301 314 306 297 299 297 296 313 309 306 328 335 335 332 330 326 322 321 319 316 317 309 308 313 313 311 315 317 318 316 313
221 222 221 220 215 217 222 228 231 237 239 246 249 261 266 270 280 295 297 305 300 311 304 293 276 307 301 300 319 328 329 328 325 326 325 322 321 323 317 313 311 316 318 315 316 318 316 313 310
222 222 218 220 213 215 224 230 230 234 238 242 248 254 259 264 273 279 290 302 297 294 292 293 280 295 302 302 311 322 324 324 322 324 324 326 321 323 322 314 313 316 322 322 317 315 313 311 306
225 223 221 211 208 209 230 228 230 235 241 246 252 256 258 261 276 287 295 297 293 296 296 285 283 288 292 287 305 308 314 325 319 323 322 322 318 319 320 318 316 315 318 324 319 311 310 308 301
232 227 222 214 208 212 219 225 229 237 242 247 253 256 256 262 271 280 288 293 296 295 300 296 298 286 288 284 299 309 307 321 322 321 316 315 313 311 313 318 316 316 317 316 315 311 308 308 299
235 233 226 223 219 214 220 224 230 237 239 245 248 250 253 263 272 278 286 290 290 292 291 296 307 293 288 295 303 309 306 313 317 313 312 306 301 301 306 313 317 312 310 311 314 308 306 309 303
237 236 231 228 225 219 223 227 234 238 239 245 248 249 254 263 272 282 287 290 289 292 298 299 300 291 293 300 308 311 310 315 319 318 310 298 299 299 300 306 307 305 307 308 309 306 306 308 307
236 234 233 232 231 225 223 228 231 233 236 240 246 251 256 260 268 279 280 290 298 298 297 295 299 294 293 302 308 308 311 316 317 314 305 297 296 294 294 300 305 304 304 304 306 305 306 308 310
234 233 235 231 234 227 224 222 227 235 240 242 244 248 256 258 263 273 275 290 299 299 296 291 294 290 297 301 302 306 310 311 311 306 295 297 298 292 293 301 303 302 296 301 300 302 306 309 312
247 237 234 228 232 232 226 221 229 234 237 238 239 243 249 255 264 273 275 281 290 295 292 287 288 289 292 295 299 304 308 306 304 297 285 288 290 290 298 299 299 295 288 295 294 299 301 302 305
243 242 239 234 233 234 231 234 229 232 233 239 243 245 251 258 265 277 281 285 290 292 290 289 282 284 287 290 294 299 305 305 301 289 283 283 285 296 299 299 296 289 287 289 291 295 298 299 302
249 243 240 237 235 237 237 235 234 232 235 234 239 244 251 258 265 270 274 278 281 282 285 282 280 282 283 286 293 298 301 301 293 289 286 280 282 294 291 294 293 288 289 289 290 290 294 297 302
251 248 246 241 240 239 244 235 234 235 237 239 241 245 251 253 259 265 267 272 275 278 276 278 273 277 280 286 292 293 298 298 290 291 292 287 284 284 289 290 294 290 290 291 296 299 300 295 297
251 249 249 244 243 243 242 243 238 241 239 242 244 245 250 252 257 262 263 270 269 270 270 266 267 273 279 286 287 289 294 294 288 291 292 286 280 282 287 292 288 288 291 303 304 308 297 296 298
248 250 252 250 249 245 243 246 242 242 242 243 240 245 252 255 258 264 261 269 264 263 261 262 266 271 277 282 285 287 288 288 288 290 288 282 277 281 288 290 286 284 296 299 303 302 294 297 298
252 250 248 247 244 244 245 245 247 245 243 244 249 256 257 258 262 263 264 263 259 260 262 265 269 274 276 277 280 282 284 285 287 287 284 277 279 286 287 285 283 286 293 297 302 297 295 300 296
245 246 245 244 245 246 247 249 247 245 246 245 246 250 254 260 259 260 254 258 260 258 258 263 267 271 275 274 279 282 280 284 286 284 280 284 287 283 277 281 280 282 291 294 298 292 298 295 295
239 241 242 244 244 245 247 246 246 246 247 251 250 249 255 255 259 257 255 255 257 258 257 261 264 270 271 273 277 279 284 285 283 280 283 284 280 275 281 281 285 292 292 295 295 296 296 295 299
237 235 237 240 241 242 244 244 246 246 248 249 249 246 248 255 255 252 253 254 257 259 258 257 260 264 266 271 275 280 282 282 280 277 277 278 281 280 283 285 285 287 292 291 291 295 294 297 292
228 231 231 235 237 239 241 244 241 244 247 249 250 252 256 255 254 251 251 254 257 257 256 254 258 263 267 270 276 275 278 281 271 272 280 281 284 285 285 286 287 288 285 287 291 293 296 294 288
229 227 227 229 232 235 237 244 237 243 245 250 253 250 247 242 241 245 250 254 256 257 259 261 260 261 267 270 272 276 278 272 271 275 281 285 286 287 288 285 281 280 286 291 292 292 293 289 296
239 234 229 227 228 231 232 240 233 240 244 244 241 239 239 242 245 247 248 251 256 263 259 256 261 263 264 270 272 272 269 270 271 276 279 287 286 287 283 280 278 284 290 290 287 291 288 293 301
242 238 233 229 228 225 229 235 228 236 239 234 232 236 236 239 240 244 248 254 250 245 252 257 259 263 264 266 265 265 266 267 271 275 282 285 284 282 281 278 282 287 286 282 287 287 290 299 304
245 249 231 232 229 220 228 230 219 223 237 231 229 229 232 235 240 246 256 246 241 246 252 256 259 259 257 257 258 259 265 267 270 276 282 281 280 282 280 282 283 284 278 282 284 281 286 290 305
231 230 233 226 227 223 228 224 218 213 199 161 194 219 226 232 241 245 231 234 237 240 248 253 254 254 251 245 249 257 265 266 270 276 278 273 276 277 280 279 281 280 278 281 280 280 301 285 303
217 227 215 218 219 222 217 218 215 219 214 223 224 227 235 220 226 221 218 228 232 238 243 245 251 241 239 243 250 259 263 267 272 269 272 275 279 278 273 270 276 277 279 277 285 298 290 280 289
220 208 215 211 214 214 211 211 212 223 210 217 222 219 215 200 207 214 215 224 225 228 231 238 232 232 241 250 257 265 265 265 262 268 272 275 274 268 263 270 276 278 280 280 283 293 294 299 318
220 213 218 214 203 210 206 207 213 216 213 206 193 187 199 201 203 203 208 211 216 223 230 235 234 233 242 250 259 261 257 262 268 270 269 274 276 264 261 274 275 276 281 284 291 301 301 290 292
Height
5873 5875 5878 5880 5883 5883 5881 5885 5886 5887 5889 5890 5891 5893 5895 5896 5897 5901 5900 5901 5902 5903 5902 5901 5901 5901 5898 5895 5892 5889 5888 5886 5882 5880 5879 5876 5875 5872 5870 5868 5866 5864 5863 5860 5860 5858 5856 5856 5853
5869 5871 5874 5875 5879 5880 5880 5882 5882 5884 5886 5887 5888 5890 5891 5892 5893 5894 5895 5897 5898 5898 5898 5899 5899 5899 5897 5894 5891 5889 5887 5885 5881 5878 5875 5874 5871 5868 5866 5865 5863 5861 5859 5857 5855 5853 5850 5849 5848
5864 5867 5869 5870 5874 5878 5877 5879 5880 5881 5882 5884 5885 5887 5888 5889 5889 5890 5891 5895 5895 5894 5894 5896 5897 5897 5893 5891 5888 5886 5883 5881 5877 5875 5872 5870 5869 5867 5864 5863 5861 5859 5856 5854 5851 5848 5845 5843 5842
5858 5862 5865 5867 5872 5873 5874 5874 5876 5877 5879 5880 5882 5884 5886 5886 5886 5886 5888 5892 5894 5893 5892 5891 5894 5892 5890 5888 5885 5883 5881 5878 5875 5872 5869 5866 5865 5864 5862 5859 5857 5856 5854 5852 5849 5845 5843 5841 5838
5851 5856 5857 5864 5868 5870 5869 5869 5871 5873 5875 5876 5879 5881 5881 5881 5883 5883 5885 5888 5891 5891 5889 5889 5890 5889 5886 5885 5882 5880 5877 5875 5872 5868 5865 5863 5860 5857 5856 5855 5853 5852 5850 5848 5845 5842 5841 5838 5835
5844 5849 5853 5859 5864 5865 5864 5865 5866 5867 5871 5872 5874 5877 5878 5878 5880 5881 5882 5882 5886 5887 5886 5885 5886 5885 5883 5881 5879 5878 5874 5871 5866 5863 5861 5859 5856 5854 5852 5850 5848 5847 5845 5843 5840 5839 5837 5834 5831
5839 5843 5847 5852 5857 5858 5860 5858 5861 5864 5866 5868 5871 5874 5875 5875 5875 5877 5878 5878 5880 5883 5882 5881 5881 5880 5878 5877 5876 5875 5871 5868 5862 5860 5857 5854 5852 5850 5848 5846 5844 5842 5840 5839 5837 5835 5833 5830 5826
5832 5835 5839 5846 5851 5854 5853 5853 5855 5858 5861 5863 5865 5868 5870 5872 5871 5874 5875 5875 5875 5876 5876 5876 5875 5874 5871 5870 5871 5870 5867 5865 5861 5858 5854 5851 5848 5846 5845 5842 5839 5837 5835 5834 5833 5831 5828 5825 5822
5822 5823 5830 5839 5843 5848 5848 5849 5848 5850 5856 5858 5859 5863 5866 5867 5868 5869 5870 5870 5869 5869 5868 5871 5870 5868 5866 5863 5862 5862 5859 5857 5855 5851 5849 5845 5844 5842 5840 5838 5835 5833 5831 5830 5827 5825 5822 5819 5817
5811 5814 5824 5837 5837 5839 5840 5843 5844 5843 5847 5851 5854 5856 5858 5862 5863 5864 5865 5865 5865 5864 5863 5862 5862 5860 5859 5857 5854 5854 5852 5850 5848 5845 5844 5841 5839 5837 5835 5832 5829 5827 5825 5823 5821 5818 5816 5814 5811
5800 5804 5820 5825 5827 5828 5830 5834 5834 5836 5838 5844 5847 5850 5853 5855 5857 5858 5859 5859 5858 5857 5857 5855 5853 5852 5851 5849 5847 5847 5847 5845 5841 5840 5837 5836 5834 5832 5829 5826 5824 5822 5819 5817 5814 5811 5810 5808 5805
5790 5798 5805 5815 5813 5816 5819 5825 5826 5827 5833 5835 5838 5842 5845 5850 5851 5852 5852 5852 5853 5852 5851 5849 5847 5846 5845 5843 5840 5839 5840 5839 5837 5833 5831 5830 5828 5826 5823 5821 5817 5814 5811 5810 5807 5805 5803 5801 5799
5779 5789 5792 5800 5799 5805 5807 5812 5818 5819 5826 5828 5830 5832 5838 5843 5845 5846 5844 5844 5844 5844 5843 5843 5841 5840 5838 5835 5834 5833 5833 5831 5829 5827 5825 5823 5822 5819 5818 5814 5810 5807 5804 5802 5800 5798 5796 5794 5791
5771 5773 5776 5782 5787 5791 5793 5801 5803 5816 5817 5821 5823 5827 5830 5835 5838 5838 5839 5838 5837 5836 5837 5835 5834 5831 5830 5829 5827 5827 5826 5825 5823 5821 5819 5816 5815 5813 5811 5807 5804 5801 5798 5795 5793 5791 5790 5787 5784
5754 5754 5757 5767 5775 5778 5779 5783 5790 5808 5811 5808 5815 5820 5825 5828 5829 5832 5832 5830 5830 5828 5828 5828 5825 5823 5822 5821 5821 5820 5819 5819 5817 5815 5813 5810 5809 5806 5803 5800 5799 5795 5792 5790 5787 5784 5783 5780 5777
5738 5738 5740 5756 5761 5767 5765 5771 5789 5796 5797 5802 5806 5810 5814 5818 5818 5820 5822 5822 5822 5820 5820 5818 5816 5815 5815 5815 5814 5812 5812 5813 5810 5808 5806 5803 5801 5798 5795 5793 5791 5789 5786 5782 5780 5778 5776 5772 5769
5720 5728 5732 5743 5747 5749 5746 5761 5775 5780 5783 5788 5795 5798 5801 5807 5809 5811 5813 5814 5814 5813 5811 5810 5810 5809 5808 5807 5806 5806 5805 5805 5803 5801 5799 5796 5793 5791 5788 5786 5784 5782 5780 5777 5774 5771 5768 5764 5761
5712 5713 5717 5720 5729 5728 5734 5746 5756 5764 5771 5777 5782 5785 5789 5794 5800 5803 5804 5804 5804 5803 5803 5802 5803 5801 5800 5799 5799 5799 5798 5797 5795 5793 5790 5787 5784 5784 5781 5779 5777 5775 5773 5770 5767 5764 5760 5756 5754
5687 5692 5699 5704 5711 5715 5724 5734 5743 5749 5757 5763 5767 5774 5780 5784 5789 5790 5793 5793 5792 5792 5794 5794 5795 5792 5792 5791 5792 5792 5790 5789 5788 5784 5781 5780 5778 5775 5773 5772 5770 5768 5766 5763 5760 5757 5753 5750 5747
5668 5673 5682 5689 5697 5703 5707 5717 5726 5735 5744 5749 5756 5762 5767 5773 5777 5778 5779 5780 5781 5782 5783 5785 5784 5783 5783 5785 5785 5785 5783 5782 5779 5776 5774 5771 5769 5766 5766 5766 5763 5762 5759 5756 5753 5750 5747 5744 5740
5646 5654 5665 5673 5679 5686 5693 5701 5713 5724 5730 5739 5743 5750 5757 5763 5766 5768 5770 5769 5770 5772 5774 5775 5773 5774 5776 5777 5778 5778 5776 5774 5771 5768 5766 5763 5762 5762 5761 5759 5759 5756 5752 5749 5746 5744 5741 5737 5734
5621 5634 5646 5656 5664 5673 5682 5686 5697 5714 5721 5728 5735 5740 5747 5751 5754 5757 5757 5758 5760 5762 5761 5762 5765 5768 5769 5770 5771 5770 5769 5766 5763 5761 5760 5758 5757 5756 5754 5753 5751 5748 5746 5743 5740 5737 5734 5731 5729
5604 5613 5628 5638 5647 5656 5674 5669 5700 5705 5714 5721 5726 5732 5735 5738 5741 5744 5747 5750 5750 5752 5753 5757 5760 5761 5762 5764 5764 5763 5760 5758 5756 5755 5754 5753 5751 5750 5749 5747 5745 5742 5740 5736 5734 5731 5729 5726 5723
5594 5603 5614 5623 5632 5639 5667 5662 5691 5700 5709 5712 5716 5719 5724 5728 5731 5734 5738 5740 5742 5744 5747 5750 5752 5754 5756 5756 5757 5754 5753 5752 5750 5749 5748 5747 5745 5744 5743 5741 5738 5736 5733 5730 5727 5726 5724 5722 5718
5585 5590 5601 5609 5615 5639 5650 5650 5687 5693 5697 5701 5705 5710 5715 5718 5721 5725 5729 5733 5736 5738 5741 5743 5745 5747 5748 5750 5748 5747 5746 5746 5745 5743 5742 5741 5739 5738 5736 5734 5732 5729 5727 5724 5723 5722 5720 5718 5714
5580 5584 5593 5600 5609 5638 5634 5649 5677 5685 5687 5688 5694 5701 5706 5707 5713 5720 5725 5727 5730 5732 5735 5737 5739 5740 5741 5740 5740 5741 5741 5740 5739 5737 5736 5735 5733 5731 5729 5728 5726 5724 5721 5720 5719 5718 5717 5713 5710
5575 5575 5589 5595 5605 5617 5628 5655 5666 5674 5679 5681 5687 5692 5696 5703 5710 5716 5719 5721 5723 5727 5730 5731 5732 5732 5733 5733 5734 5735 5735 5735 5734 5732 5730 5729 5728 5726 5724 5722 5720 5719 5718 5716 5716 5714 5711 5708 5705
5571 5577 5580 5585 5598 5610 5628 5643 5653 5660 5672 5678 5681 5688 5693 5698 5704 5708 5711 5715 5719 5722 5724 5725 5725 5726 5727 5728 5730 5730 5730 5729 5728 5726 5725 5724 5722 5720 5718 5717 5716 5715 5714 5713 5711 5709 5706 5704 5701
5568 5571 5576 5582 5594 5603 5617 5632 5641 5647 5662 5667 5675 5683 5689 5692 5697 5701 5706 5711 5714 5716 5718 5719 5720 5721 5722 5724 5725 5725 5724 5724 5723 5722 5721 5719 5717 5716 5715 5713 5712 5711 5710 5710 5708 5705 5703 5701 5698
5565 5569 5573 5576 5588 5596 5606 5622 5630 5640 5655 5662 5669 5677 5683 5687 5693 5699 5703 5707 5709 5711 5714 5715 5716 5717 5718 5719 5719 5719 5719 5719 5718 5717 5715 5713 5712 5712 5711 5710 5708 5708 5708 5707 5705 5703 5700 5697 5693